Pottstown, PA

9:02 PM EDT on April 30, 2017 (GMT -0400)
Pottstown Limerick

Weather History for KPTW - January, 2013

Change the Weather History Date:

Thursday, January 31, 2013

  Actual Average (KRDG) Record (KRDG)
Temperature  
Mean Temperature 44 °F -  
Max Temperature 59 °F 36 °F 67 °F (1916)
Min Temperature 28 °F 22 °F 0 °F (1977)
Degree Days  
Heating Degree Days 22    
Moisture  
Dew Point 42 °F    
Average Humidity 78    
Maximum Humidity 100    
Minimum Humidity 41    
Precipitation  
Precipitation 1.43 in - - ()
Sea Level Pressure  
Sea Level Pressure 29.33 in    
Wind  
Wind Speed 9 mph (WSW)    
Max Wind Speed 29 mph    
Max Gust Speed 41 mph    
Visibility 7 miles    
Events Rain    
Averages and records for this station are not official NWS values.
T = Trace of Precipitation, MM = Missing Value Source: NWS Daily Summary

Daily Weather History Graph

Daily Weather History Graph

Search for Another Location

Airport or City:

Trip Planner

Search our weather history database for the weather conditions in past years. The results will help you decide how hot, cold, wet, or windy it might be!

Date:

Astronomy

Jan. 31, 2013 Rise Set
Actual Time 7:11 AM EST 5:20 PM EST
Civil Twilight 6:43 AM EST 5:48 PM EST
Nautical Twilight 6:10 AM EST 6:21 PM EST
Astronomical Twilight 5:38 AM EST 6:53 PM EST
Moon 10:20 PM EST (1/31) 9:09 AM EST (1/31)
Length of Visible Light 11h 05m
Length of Day
10h 08m
Waning Gibbous, 80% of the Moon is Illuminated
Jan 31
Waning Gibbous
Feb 3
Last Quarter
Feb 10
New
Feb 17
First Quarter
Feb 25
Full

Hourly Weather History & Observations

Time (EST) Temp. Windchill Dew Point Humidity Pressure Visibility Wind Dir Wind Speed Gust Speed Precip Events Conditions
12:07 AM 55.4 °F - 53.6 °F 94% 29.30 in 3.0 mi Variable 3.5 mph - 0.02 in Rain Rain
12:16 AM 55.4 °F - 55.4 °F 100% 29.27 in 4.0 mi ESE 5.8 mph - 0.04 in Rain Rain
12:46 AM 57.2 °F - 55.4 °F 94% 29.20 in 10.0 mi Variable 6.9 mph - 0.11 in Rain Light Rain
12:54 AM 57.0 °F - 57.0 °F 100% 29.16 in 10.0 mi SE 8.1 mph - 0.11 in Rain Light Rain
1:12 AM 59.0 °F - 57.2 °F 94% 29.12 in 10.0 mi South 10.4 mph 28.8 mph 0.00 in   Overcast
1:22 AM 57.2 °F - 55.4 °F 94% 29.16 in 1.8 mi WSW 17.3 mph 29.9 mph 0.23 in Rain Rain
1:29 AM 57.2 °F - 57.2 °F 100% 29.16 in 1.2 mi South 10.4 mph 29.9 mph 0.29 in Rain Heavy Rain
1:32 AM 57.2 °F - 57.2 °F 100% 29.15 in 2.0 mi Variable 5.8 mph 18.4 mph 0.31 in Rain Heavy Rain
1:35 AM 57.2 °F - 57.2 °F 100% 29.17 in 4.0 mi West 11.5 mph 16.1 mph 0.32 in Rain Heavy Rain
1:41 AM 57.2 °F - 55.4 °F 94% 29.15 in 2.5 mi SW 5.8 mph 19.6 mph 0.39 in Rain Heavy Rain
1:47 AM 57.2 °F - 55.4 °F 94% 29.16 in 1.8 mi West 8.1 mph - 0.46 in Rain Heavy Rain
1:54 AM 57.0 °F - 55.9 °F 96% 29.16 in 1.5 mi WSW 4.6 mph - 0.54 in Rain Heavy Rain
2:01 AM 57.2 °F - 55.4 °F 94% 29.15 in 2.5 mi West 5.8 mph - 0.02 in Rain Heavy Rain
2:09 AM 57.2 °F - 55.4 °F 94% 29.13 in 3.0 mi Variable 3.5 mph - 0.06 in Rain Rain
2:21 AM 57.2 °F - 55.4 °F 94% 29.11 in 3.0 mi Calm Calm - 0.10 in Rain Heavy Rain
2:41 AM 57.2 °F - 57.2 °F 100% 29.17 in 1.5 mi West 13.8 mph 20.7 mph 0.32 in Rain Heavy Rain
2:51 AM 57.2 °F - 57.2 °F 100% 29.16 in 1.2 mi WSW 9.2 mph 19.6 mph 0.44 in Rain Heavy Rain
2:54 AM 57.9 °F - 57.0 °F 97% 29.16 in 3.0 mi WSW 6.9 mph 16.1 mph 0.45 in Rain Rain
3:12 AM 57.2 °F - 55.4 °F 94% 29.15 in 5.0 mi SW 6.9 mph 17.3 mph 0.04 in Rain Heavy Rain
3:52 AM 57.2 °F - 55.4 °F 94% 29.14 in 8.0 mi SSW 4.6 mph - 0.15 in Rain Rain
3:54 AM 57.9 °F - 55.9 °F 93% 29.13 in 7.0 mi South 3.5 mph - 0.16 in Rain Rain
4:09 AM 57.2 °F - 55.4 °F 94% 29.12 in 4.0 mi Calm Calm - 0.02 in Rain Rain
4:37 AM 57.2 °F - 53.6 °F 88% 29.11 in 10.0 mi SW 4.6 mph - 0.03 in   Overcast
4:47 AM 55.4 °F - 53.6 °F 94% 29.11 in 3.0 mi SW 19.6 mph 29.9 mph 0.13 in Rain Heavy Rain
4:54 AM 55.9 °F - 52.0 °F 87% 29.14 in 2.5 mi WSW 17.3 mph 33.4 mph 0.15 in Rain Rain
5:01 AM 55.4 °F - 51.8 °F 88% 29.14 in 8.0 mi WSW 11.5 mph 26.5 mph 0.01 in Rain Light Rain
5:54 AM 48.0 °F - 43.0 °F 83% 29.21 in 10.0 mi WNW 12.7 mph 27.6 mph 0.02 in Rain Light Rain
6:54 AM 46.0 °F 39.3 °F 37.0 °F 71% 29.28 in 10.0 mi WNW 16.1 mph 26.5 mph N/A   Overcast
7:54 AM 43.0 °F 34.8 °F 28.9 °F 58% 29.37 in 10.0 mi West 18.4 mph 34.5 mph N/A   Overcast
8:54 AM 42.1 °F 31.5 °F 26.1 °F 53% 29.43 in 10.0 mi WNW 28.8 mph 41.4 mph N/A   Mostly Cloudy
9:54 AM 42.1 °F 34.2 °F 26.1 °F 53% 29.48 in 10.0 mi West 16.1 mph 32.2 mph N/A   Mostly Cloudy
10:54 AM 41.0 °F 31.9 °F 21.9 °F 47% 29.52 in 10.0 mi West 19.6 mph 38.0 mph N/A   Scattered Clouds
11:54 AM 43.0 °F 34.8 °F 21.9 °F 43% 29.52 in 10.0 mi West 18.4 mph 27.6 mph N/A   Mostly Cloudy
12:54 PM 42.1 °F 33.6 °F 19.9 °F 41% 29.54 in 10.0 mi West 18.4 mph 29.9 mph N/A   Scattered Clouds
1:54 PM 41.0 °F 32.5 °F 19.9 °F 43% 29.57 in 10.0 mi West 17.3 mph 33.4 mph N/A   Scattered Clouds
2:54 PM 39.9 °F 30.5 °F 18.0 °F 41% 29.60 in 10.0 mi West 19.6 mph 28.8 mph N/A   Mostly Cloudy
3:54 PM 37.0 °F 28.1 °F 16.0 °F 42% 29.66 in 10.0 mi WSW 15.0 mph 27.6 mph N/A   Mostly Cloudy
4:54 PM 35.1 °F 26.9 °F 16.0 °F 46% 29.69 in 10.0 mi West 11.5 mph 21.9 mph N/A   Mostly Cloudy
5:54 PM 33.1 °F 25.5 °F 16.0 °F 50% 29.73 in 10.0 mi West 9.2 mph 17.3 mph N/A   Scattered Clouds
7:54 PM 30.9 °F 21.2 °F 17.1 °F 57% 29.80 in 10.0 mi West 12.7 mph 23.0 mph N/A   Overcast
8:54 PM 30.0 °F 19.5 °F 15.1 °F 54% 29.83 in 10.0 mi West 13.8 mph 20.7 mph 0.00 in   Mostly Cloudy
10:54 PM 28.9 °F 20.4 °F 10.0 °F 45% 29.84 in 10.0 mi WSW 9.2 mph 17.3 mph N/A   Scattered Clouds
11:54 PM 28.9 °F 22.8 °F 10.9 °F 47% 29.85 in 10.0 mi WSW 5.8 mph - N/A   Overcast